RH
48 59 66 73 76 80 89 95 64 94 70 48 62 62 57 64 59 66 69 67 67 70 74 77 83 78 73 67 58 54 43 36
53 66 70 76 77 76 68 64 71 83 73 60 52 55 65 63 62 71 71 70 72 78 78 81 70 55 56 55 58 50 39 34
62 65 64 63 33 37 52 53 50 51 59 59 61 63 61 65 68 71 81 84 89 88 89 80 72 50 46 50 50 46 45 39
58 62 55 43 40 40 47 54 58 60 61 69 64 62 61 66 79 97 93 92 96 65 55 60 51 52 54 53 53 54 51 47
69 43 40 45 50 56 57 57 59 62 64 62 62 64 71 85 92 94 64 53 54 55 58 57 57 58 61 63 59 57 57 50
63 51 51 50 54 57 58 60 62 64 64 64 67 78 85 81 65 56 55 45 58 66 66 64 63 66 66 68 66 61 56 51
65 60 62 53 54 56 58 65 71 77 78 78 79 75 57 50 51 49 51 61 66 67 70 64 50 47 42 38 28 26 23 20
84 88 89 89 74 62 54 53 73 79 78 75 63 58 63 68 64 62 62 61 60 58 51 41 36 32 25 17 16 24 31 51
80 78 86 89 96 77 73 52 55 67 72 69 69 72 69 74 58 53 57 56 44 37 30 11 8 8 9 13 34 51 74 77
82 94 93 91 95 83 71 79 80 78 71 76 75 69 66 60 57 58 45 25 13 8 7 6 10 16 38 46 77 98 87 91
86 86 86 90 78 75 86 86 93 98 100 97 86 73 59 55 46 27 13 9 8 5 6 9 29 70 83 93 96 98 96 99
67 89 97 93 93 78 88 87 98 100 86 90 72 51 44 36 20 12 11 9 6 8 18 43 62 68 73 92 100 98 99 97
77 78 76 83 88 90 82 75 76 76 91 80 51 41 33 18 15 14 12 10 9 15 43 65 67 64 46 42 40 39 42 47
78 79 76 67 68 65 62 74 78 84 83 73 53 51 35 34 24 20 14 15 25 57 74 65 33 16 16 18 23 21 18 28
90 78 66 56 46 49 61 79 94 96 98 91 64 56 46 45 44 30 29 52 69 80 65 27 21 27 39 47 38 27 27 29
93 73 52 38 35 61 84 93 96 88 86 97 85 94 87 56 56 55 44 77 87 87 72 53 59 62 89 63 36 40 53 50
80 47 30 38 64 96 98 95 99 84 75 95 93 84 97 97 89 42 70 92 92 96 78 79 79 70 72 53 52 54 56 58
41 32 81 100 93 78 86 94 96 80 72 98 71 82 98 89 53 32 74 89 94 81 91 98 72 80 82 64 59 69 71 71
33 86 89 95 70 87 85 71 60 76 94 95 61 88 76 95 51 47 64 95 90 85 97 93 86 80 71 74 72 68 76 77
Wind_Speed
15 12 13 15 17 19 16 22 23 20 30 21 22 23 27 33 34 33 37 35 38 40 41 43 41 43 44 45 40 40 38 38
23 23 24 25 23 22 19 21 20 23 27 28 28 29 33 34 32 36 38 41 42 42 44 46 42 49 46 44 44 42 39 38
22 29 30 25 21 19 21 23 24 25 30 31 29 35 35 35 35 40 45 45 43 49 48 52 54 45 45 44 42 42 42 39
25 25 20 15 13 14 16 19 21 22 29 34 37 35 37 37 38 43 47 52 56 47 44 45 45 44 42 43 45 45 47 45
3 11 8 10 13 17 20 25 27 26 29 32 34 37 39 47 49 50 44 42 45 44 42 44 44 46 47 48 48 50 52 52
10 10 15 17 18 21 25 28 32 33 34 35 39 43 43 45 46 47 46 50 47 46 48 49 49 50 49 50 52 53 54 56
11 15 19 23 25 27 24 24 28 34 36 37 40 43 42 43 47 50 49 51 52 50 51 50 50 50 51 52 54 55 55 53
3 4 8 18 25 26 26 26 24 28 34 42 42 43 48 50 48 49 50 49 48 47 48 49 52 54 56 56 53 48 44 41
11 16 16 17 21 30 29 31 31 33 36 43 49 53 50 45 47 48 47 44 45 48 51 52 53 53 53 50 43 40 38 39
10 8 15 22 25 29 35 37 35 34 39 44 48 50 46 45 45 43 43 45 45 47 49 52 51 50 45 41 38 39 39 37
15 16 21 26 33 35 34 40 37 43 44 46 44 43 43 43 42 44 43 45 48 49 50 49 46 37 35 34 35 35 33 31
19 17 18 27 34 40 36 46 42 43 48 44 39 40 40 41 41 44 46 49 48 48 45 41 37 37 36 38 38 35 33 31
22 25 32 36 41 41 50 42 42 46 42 41 37 37 39 39 41 45 48 50 48 46 43 41 39 37 35 33 34 34 35 37
30 31 36 39 41 43 42 42 40 41 41 41 40 37 41 41 44 47 47 46 46 41 39 36 34 33 33 33 33 34 35 34
29 40 39 40 41 43 40 35 36 36 44 39 41 48 49 46 46 44 44 44 42 39 34 33 33 34 34 34 33 32 32 34
38 40 43 43 40 32 32 33 35 36 38 29 42 43 42 52 43 47 44 43 40 38 35 33 33 32 30 33 33 33 34 37
39 41 40 35 33 28 28 31 35 38 48 39 45 50 33 42 35 47 41 38 39 36 35 35 33 33 36 38 38 38 39 40
40 38 29 25 27 31 28 29 34 42 41 47 52 59 48 44 43 44 40 37 34 37 34 36 37 36 38 42 42 42 43 42
36 26 27 26 36 29 32 37 41 36 37 43 53 44 46 34 42 39 43 37 38 32 34 37 41 37 39 42 44 41 38 38
Wind_Direction
232 226 195 212 226 238 239 259 276 275 286 291 289 289 297 303 295 294 301 297 302 302 302 300 302 302 301 303 297 294 290 287
203 211 220 217 222 239 240 262 276 278 282 282 289 294 298 286 289 293 292 293 299 299 296 297 306 305 302 300 296 291 287 283
214 224 241 246 248 263 262 265 277 281 281 282 285 287 280 278 280 287 293 293 292 293 298 306 302 299 298 295 287 285 282 281
234 242 253 256 264 269 281 287 287 291 283 284 286 284 288 291 288 293 291 292 295 305 305 301 298 295 297 292 289 286 285 284
251 262 246 250 267 286 300 304 300 296 286 286 287 289 291 295 304 303 304 304 296 303 300 299 301 302 300 296 292 289 288 285
248 274 275 275 287 304 310 303 298 296 291 287 290 293 295 298 301 301 303 305 310 307 305 303 302 300 297 294 291 290 290 290
283 293 301 296 301 308 308 301 300 303 299 294 295 297 299 304 304 304 305 304 303 303 302 302 301 300 299 297 296 294 294 294
209 240 270 303 308 311 314 307 301 300 303 302 302 302 306 306 303 301 302 302 304 305 303 301 301 302 302 301 300 297 294 290
320 318 325 322 310 312 312 314 310 303 299 298 300 303 304 301 307 305 306 306 307 307 308 308 307 306 306 304 300 294 291 290
296 300 312 303 302 303 309 314 312 301 302 302 301 303 306 305 305 305 305 310 309 309 310 310 310 309 306 301 294 292 294 292
301 294 286 283 291 298 298 307 302 298 302 298 299 299 301 301 303 304 309 313 313 312 310 313 311 306 301 297 294 292 294 289
279 285 290 291 297 302 295 304 301 297 301 298 297 299 300 302 306 310 315 314 312 313 315 315 308 299 293 288 289 293 288 290
273 278 292 299 300 299 305 311 308 304 299 299 297 296 296 304 309 311 313 312 314 319 320 317 311 305 303 300 295 294 294 290
294 302 314 314 311 308 312 309 304 304 305 307 302 299 305 311 309 310 313 318 319 317 315 311 309 306 304 302 299 297 300 301
301 318 315 314 313 314 313 314 310 313 309 302 315 312 311 313 314 319 319 318 317 316 313 309 307 306 306 303 305 308 304 298
305 313 316 317 318 319 316 315 316 310 310 288 318 306 298 314 314 319 321 317 317 316 311 309 309 309 308 305 312 311 306 301
311 317 317 317 324 319 307 308 310 310 311 298 315 307 288 298 309 320 320 311 312 312 314 315 314 313 310 314 315 312 306 302
319 320 329 319 312 311 312 305 304 306 306 306 305 299 307 296 319 323 324 302 304 310 314 312 316 320 315 314 314 310 307 305
326 328 319 316 319 319 306 304 306 298 301 304 309 309 308 315 322 323 321 303 309 315 311 311 319 315 313 311 310 310 309 306